Eindhoven, Netherlands

4:29 AM CEST on October 17, 2017 (GMT +0200)
Eindhoven Air Base

Weather History for EHEH - May, 2014

Change the Weather History Date:

Sunday, May 18, 2014

  Actual Average Record
Temperature  
Mean Temperature 58 °F -  
Max Temperature 73 °F 67 °F 77 °F (1998)
Min Temperature 44 °F 48 °F 32 °F (2005)
Degree Days  
Heating Degree Days 6    
Growing Degree Days 8 (Base 50)    
Moisture  
Dew Point 48 °F    
Average Humidity 73    
Maximum Humidity 100    
Minimum Humidity 31    
Precipitation  
Precipitation 0.00 in - - ()
Sea Level Pressure  
Sea Level Pressure 29.98 in    
Wind  
Wind Speed 2 mph ()    
Max Wind Speed 8 mph    
Max Gust Speed -    
Visibility 6.3 miles    
Events      
Averages and records for this station are not official NWS values.
T = Trace of Precipitation, MM = Missing Value Source: Averaged Metar Reports

Daily Weather History Graph

Daily Weather History Graph

Search for Another Location

Airport or City:

Trip Planner

Search our weather history database for the weather conditions in past years. The results will help you decide how hot, cold, wet, or windy it might be!

Date:

Astronomy

May. 18, 2014 Rise Set
Actual Time 5:42 AM CEST 9:27 PM CEST
Civil Twilight 5:00 AM CEST 10:09 PM CEST
Nautical Twilight 4:02 AM CEST 11:08 PM CEST
Astronomical Twilight 2:30 AM CEST 12:44 AM CEST
Moon 12:10 AM CEST (5/18) 9:17 AM CEST (5/18)
Length of Visible Light 17h 09m
Length of Day
15h 45m
Waning Gibbous, 83% of the Moon is Illuminated
May 18
Waning Gibbous
May 21
Last Quarter
May 28
New
Jun 5
First Quarter
Jun 13
Full

Hourly Weather History & Observations

Time (CEST) Temp. Dew Point Humidity Pressure Visibility Wind Dir Wind Speed Gust Speed Precip Events Conditions
12:00 AM 51 °F 47 °F 83% 30.12 in 11 mi Calm Calm - -  
12:25 AM 50.0 °F 48.2 °F 94% 30.09 in 6.2 mi Calm Calm - N/A   Partly Cloudy
12:55 AM 50.0 °F 48.2 °F 94% 30.09 in 6.2 mi Calm Calm - N/A   Partly Cloudy
1:00 AM 49 °F 47 °F 92% 30.12 in 7 mi Calm Calm - -  
1:25 AM 48.2 °F 48.2 °F 100% 30.09 in 6.2 mi Calm Calm - N/A   Unknown
1:55 AM 46.4 °F 46.4 °F 100% 30.09 in 5.0 mi North 2.3 mph - N/A   Mist
2:00 AM 47 °F 46 °F 96% 30.11 in 6 mi North 2.2 mph - -   Partly Cloudy
2:25 AM 46.4 °F 44.6 °F 93% 30.09 in 6.2 mi North 1.2 mph - N/A   Unknown
2:55 AM 46.4 °F 46.4 °F 100% 30.06 in 6.2 mi Calm Calm - N/A   Unknown
3:00 AM 47 °F 47 °F 98% 30.09 in 6 mi Calm Calm - -   Mist
3:05 AM 46.4 °F 46.4 °F 100% 30.06 in 4.3 mi WNW 1.2 mph - N/A   Mist
3:09 AM 46.4 °F 46.4 °F 100% 30.06 in 5.0 mi West 1.2 mph - N/A   Mist
3:19 AM 46.4 °F 44.6 °F 93% 30.06 in 4.3 mi Calm Calm - N/A   Mist
3:25 AM 46.4 °F 46.4 °F 100% 30.06 in 5.0 mi Calm Calm - N/A   Mist
3:38 AM 46.4 °F 46.4 °F 100% 30.06 in 5.6 mi West 1.2 mph - N/A   Mist
3:45 AM 46.4 °F 46.4 °F 100% 30.06 in 3.7 mi Calm Calm - N/A   Mist
3:49 AM 46.4 °F 46.4 °F 100% 30.06 in 1.5 mi Calm Calm - N/A   Mist
3:55 AM 46.4 °F 46.4 °F 100% 30.06 in - Calm Calm - N/A   Mist
3:59 AM 46.4 °F 46.4 °F 100% 30.06 in 3.7 mi Calm Calm - N/A   Mist
4:00 AM 46 °F 46 °F 97% 30.08 in 3 mi Calm Calm - -   Mist
4:12 AM 46.4 °F 46.4 °F 100% 30.06 in 3.1 mi Calm Calm - N/A   Mist
4:15 AM 44.6 °F 44.6 °F 100% 30.06 in 2.8 mi Calm Calm - N/A   Mist
4:25 AM 44.6 °F 44.6 °F 100% 30.06 in - Calm Calm - N/A   Mist
4:29 AM 44.6 °F 44.6 °F 100% 30.06 in 3.1 mi Calm Calm - N/A   Mist
4:34 AM 44.6 °F 44.6 °F 100% 30.06 in 5.0 mi Calm Calm - N/A   Mist
4:44 AM 44.6 °F 44.6 °F 100% 30.06 in 3.7 mi North 1.2 mph - N/A   Mist
4:55 AM 44.6 °F 44.6 °F 100% 30.06 in 3.7 mi North 1.2 mph - N/A   Mist
4:56 AM 44.6 °F 44.6 °F 100% 30.06 in 5.0 mi North 1.2 mph - N/A   Mist
5:00 AM 45 °F 44 °F 97% 30.06 in 5 mi Calm Calm - -   Mist
5:05 AM 44.6 °F 44.6 °F 100% 30.06 in 4.3 mi NNE 1.2 mph - N/A   Mist
5:25 AM 44.6 °F 44.6 °F 100% 30.04 in 3.7 mi Calm Calm - N/A   Mist
5:29 AM 44.6 °F 44.6 °F 100% 30.04 in 5.0 mi Calm Calm - N/A   Mist
5:40 AM 44.6 °F 44.6 °F 100% 30.04 in 4.3 mi Calm Calm - N/A   Mist
5:47 AM 44.6 °F 44.6 °F 100% 30.04 in - Calm Calm - N/A   Mist
5:55 AM 44.6 °F 44.6 °F 100% 30.04 in 3.7 mi Calm Calm - N/A   Mist
6:00 AM 45 °F 45 °F 98% 30.06 in 4 mi Calm Calm - -   Mist
6:04 AM 44.6 °F 44.6 °F 100% 30.04 in - Calm Calm - N/A   Mist
6:08 AM 44.6 °F 44.6 °F 100% 30.04 in 3.1 mi NNE 1.2 mph - N/A   Mist
6:15 AM 44.6 °F 44.6 °F 100% 30.04 in 5.6 mi NNE 1.2 mph - N/A   Mist
6:25 AM 44.6 °F 44.6 °F 100% 30.04 in 4.3 mi Calm Calm - N/A   Mist
6:55 AM 46.4 °F 46.4 °F 100% 30.04 in 3.1 mi North 1.2 mph - N/A   Partly Cloudy
7:00 AM 47 °F 47 °F 99% 30.04 in 4 mi Calm Calm - -   Mist
7:19 AM 50.0 °F 50.0 °F 100% 30.04 in 4.3 mi North 1.2 mph - N/A   Mist
7:25 AM 51.8 °F 50.0 °F 94% 30.04 in 4.3 mi North 1.2 mph - N/A   Mist
7:35 AM 51.8 °F 50.0 °F 94% 30.04 in 5.0 mi Calm Calm - N/A   Partly Cloudy
7:48 AM 53.6 °F 50.0 °F 88% 30.04 in 5.0 mi Calm Calm - N/A   Mist
7:55 AM 53.6 °F 51.8 °F 94% 30.04 in 5.0 mi Calm Calm - N/A   Mist
8:00 AM 56 °F 51 °F 77% 30.05 in 5 mi Calm Calm - -   Mist
8:25 AM 59.0 °F 50.0 °F 72% 30.04 in 5.6 mi East 2.3 mph - N/A   Haze
8:55 AM 60.8 °F 50.0 °F 68% 30.04 in 6.2 mi East 2.3 mph - N/A   Mostly Cloudy
9:00 AM 62 °F 51 °F 58% 30.04 in 6 mi East 2.2 mph - -   Partly Cloudy
9:25 AM 64.4 °F 51.8 °F 64% 30.04 in 6.2 mi East 2.3 mph - N/A   Scattered Clouds
9:55 AM 64.4 °F 50.0 °F 59% 30.01 in 6.2 mi ENE 5.8 mph - N/A   Scattered Clouds
10:00 AM 64 °F 50 °F 50% 30.03 in 7 mi East 4.5 mph - -   Scattered Clouds
10:25 AM 64.4 °F 50.0 °F 59% 30.01 in 6.2 mi ESE 5.8 mph - N/A   Mostly Cloudy
10:55 AM 66.2 °F 50.0 °F 56% 29.98 in 6.2 mi SE 3.5 mph - N/A   Scattered Clouds
11:00 AM 66 °F 50 °F 45% 30.00 in 11 mi 2.2 mph - -   Scattered Clouds
11:25 AM 66.2 °F 50.0 °F 56% 29.98 in 6.2 mi East 4.6 mph - N/A   Scattered Clouds
11:55 AM 68.0 °F 48.2 °F 49% 29.98 in 6.2 mi East 3.5 mph - N/A   Mostly Cloudy
12:00 PM 69 °F 48 °F 35% 29.98 in 25 mi 2.2 mph - -   Mostly Cloudy
12:25 PM 69.8 °F 50.0 °F 49% 29.95 in 6.2 mi ESE 4.6 mph - N/A   Scattered Clouds
12:41 PM 69.8 °F 50.0 °F 49% 29.95 in 6.2 mi East 5.8 mph - N/A   Partly Cloudy
12:55 PM 69.8 °F 50.0 °F 49% 29.95 in 6.2 mi NNE 4.6 mph - N/A   Mostly Cloudy
1:00 PM 70 °F 51 °F 40% 29.96 in 16 mi East 6.7 mph - -   Scattered Clouds
1:25 PM 71.6 °F 50.0 °F 46% 29.95 in 6.2 mi East 4.6 mph - N/A   Scattered Clouds
1:55 PM 69.8 °F 51.8 °F 53% 29.95 in 6.2 mi ENE 8.1 mph - N/A   Partly Cloudy
2:00 PM 70 °F 49 °F 36% 29.95 in 19 mi ENE 6.7 mph - -   Partly Cloudy
2:18 PM 71.6 °F 50.0 °F 46% 29.92 in 6.2 mi East 4.6 mph - N/A   Overcast
2:25 PM 71.6 °F 51.8 °F 50% 29.92 in 6.2 mi East 6.9 mph - N/A   Mostly Cloudy
2:55 PM 71.6 °F 50.0 °F 46% 29.92 in 6.2 mi East 5.8 mph - N/A   Mostly Cloudy
3:00 PM 72 °F 51 °F 37% 29.93 in 17 mi East 4.5 mph - -   Scattered Clouds
3:25 PM 71.6 °F 50.0 °F 46% 29.92 in 6.2 mi SE 5.8 mph - N/A   Overcast
3:55 PM 71.6 °F 48.2 °F 43% 29.89 in 6.2 mi ENE 6.9 mph - N/A   Overcast
4:00 PM 72 °F 51 °F 36% 29.91 in 18 mi ENE 6.7 mph - -   Overcast
4:25 PM 73.4 °F 50.0 °F 44% 29.89 in 6.2 mi ENE 5.8 mph - N/A   Mostly Cloudy
4:55 PM 73.4 °F 46.4 °F 38% 29.86 in 6.2 mi ENE 5.8 mph - N/A   Overcast
5:00 PM 73 °F 48 °F 31% 29.88 in 19 mi NE 4.5 mph - -   Mostly Cloudy
5:25 PM 73.4 °F 48.2 °F 41% 29.86 in 6.2 mi East 5.8 mph - N/A   Mostly Cloudy
5:55 PM 71.6 °F 48.2 °F 43% 29.86 in 6.2 mi ESE 6.9 mph - N/A   Mostly Cloudy
6:00 PM 72 °F 48 °F 31% 29.86 in 19 mi East 6.7 mph - -   Scattered Clouds
6:25 PM 73.4 °F 50.0 °F 44% 29.83 in 6.2 mi SE 5.8 mph - N/A   Overcast
6:55 PM 71.6 °F 48.2 °F 43% 29.83 in 6.2 mi East 4.6 mph - N/A   Mostly Cloudy
7:00 PM 72 °F 49 °F 33% 29.84 in 22 mi East 4.5 mph - -   Mostly Cloudy
7:25 PM 71.6 °F 48.2 °F 43% 29.83 in 6.2 mi ESE 4.6 mph - N/A   Overcast
7:55 PM 71.6 °F 48.2 °F 43% 29.83 in 6.2 mi East 5.8 mph - N/A   Mostly Cloudy
8:00 PM 71 °F 48 °F 33% 29.83 in 22 mi East 6.7 mph - -   Partly Cloudy
8:25 PM 69.8 °F 48.2 °F 46% 29.83 in 6.2 mi East 5.8 mph - N/A   Overcast
8:55 PM 68.0 °F 48.2 °F 49% 29.83 in 6.2 mi East 3.5 mph - N/A   Mostly Cloudy
9:00 PM 68 °F 48 °F 37% 29.83 in 28 mi East 4.5 mph - -   Mostly Cloudy
9:25 PM 66.2 °F 48.2 °F 52% 29.83 in 6.2 mi East 5.8 mph - N/A   Mostly Cloudy
9:55 PM 64.4 °F 48.2 °F 56% 29.83 in 6.2 mi ENE 3.5 mph - N/A   Mostly Cloudy
10:00 PM 63 °F 49 °F 50% 29.83 in 25 mi ENE 2.2 mph - -   Mostly Cloudy
10:25 PM 60.8 °F 50.0 °F 68% 29.83 in 6.2 mi ENE 3.5 mph - N/A   Unknown
10:55 PM 57.2 °F 50.0 °F 77% 29.80 in 6.2 mi East 2.3 mph - N/A   Unknown
11:00 PM 57 °F 50 °F 71% 29.83 in 28 mi East 2.2 mph - -  
11:08 PM 57.2 °F 50.0 °F 77% 29.80 in 6.2 mi East 3.5 mph - N/A   Partly Cloudy
11:25 PM 57.2 °F 50.0 °F 77% 29.80 in 6.2 mi East 3.5 mph - N/A   Unknown
11:55 PM 57.2 °F 50.0 °F 77% 29.80 in 6.2 mi East 3.5 mph - N/A   Unknown